Location: Lesignano de� Bagni
(44.6500°N, 10.3000°E)
Time: 18:50:30
(UTC+00:00)

Cosmos 2333 - Visible Passes

Search period start: 22 June 2021 00:00
Search period end: 02 July 2021 00:00
Orbit: 831 x 864 km, 70.9° (Epoch: 22 June)

Date Brightness Start Highest point End Pass type
(mag) Time Alt. Az. Time Alt. Az. Time Alt. Az.
22 Jun 4.5 19:37:44 10° S 19:43:10 46° ESE 19:48:37 10° NE visible
22 Jun 6.1 21:22:29 10° WSW 21:27:33 31° NW 21:32:36 10° N visible
23 Jun 6.1 21:09:14 10° WSW 21:14:19 32° NW 21:19:24 10° N visible
24 Jun 6.1 20:56:00 10° WSW 21:01:05 32° NW 21:06:11 10° N visible
25 Jun 6.1 20:42:45 10° WSW 20:47:52 33° NW 20:52:59 10° N visible
26 Jun 6.1 20:29:30 10° WSW 20:34:39 33° NW 20:39:47 10° N visible
27 Jun 6.2 20:16:17 10° WSW 20:21:25 33° NW 20:26:34 10° N visible
28 Jun 6.2 20:03:02 10° WSW 20:08:12 34° NW 20:13:22 10° N visible
29 Jun 6.2 19:49:48 10° WSW 19:54:59 34° NW 20:00:10 10° N visible
30 Jun 6.6 02:58:10 10° N 03:03:05 29° NE 03:07:56 10° ESE visible
30 Jun 6.2 19:36:34 10° WSW 19:41:46 35° NW 19:46:58 10° N visible
01 Jul 6.5 02:44:58 10° N 02:49:51 29° NE 02:54:41 10° ESE visible
